Regional Weather Roundup
Issued by NWS

Home | Current Version | Previous Version | Graphics & Text | Print | Product List | Glossary On
Versions: 1 2 3 4 5 6 7 8 9 10 11 12 13 14 15 16 17 18 19 20 21 22 23 24 25 26 27 28 29 30 31 32 33 34 35 36 37 38 39 40 41 42 43 44 45 46 47 48 49 50
000
ASUS43 KIND 210509
RWRIN

WEATHER ROUNDUP FOR INDIANA
NATIONAL WEATHER SERVICE INDIANAPOLIS IN
1200 AM EST SUN JAN 21 2018

NOTE: "FAIR" INDICATES FEW OR NO CLOUDS BELOW 12,000 FEET WITH NO
SIGNIFICANT WEATHER AND/OR OBSTRUCTIONS TO VISIBILITY.

* - STATION DOES NOT REPORT WEATHER SUCH AS PRECIPITATION OR FOG.

+ - STATION NOT QUALITY CONTROLLED BY THE NATIONAL WEATHER SERVICE.
    USE DATA WITH CAUTION...ESPECIALLY DEWPOINT AND RELATIVE
    HUMIDITY OBSERVATIONS.

INZ001>003-010>013-019-020-210600-
NORTHWEST INDIANA

CITY           SKY/WX    TMP DP  RH WIND       PRES   REMARKS
GARY /AIRPORT/ CLOUDY    41  36  83 CALM      30.02S
KNOX *+        CLOUDY    36  32  87 S6        30.02S WCI  31
LA PORTE +     CLOUDY    36  33  92 CALM      30.03R
MICHIGAN CITY+ CLOUDY    37  34  87 S5        30.03S WCI  34
MONTICELLO +   CLOUDY    39  37  95 S5        30.03S WCI  35
RENSSELAER +   CLOUDY    39  34  81 S9        30.03R WCI  33
VALPARAISO     CLOUDY    37  35  92 CALM      30.03R

$$

LMZ046-743>745-210600-
SOUTHERN LAKE MICHIGAN

STATION/POSITION TIME  TEMP    WIND        PRES    WAVE
                       AIR SEA DIR/SP/G            HT
                 (UTC) (F)     (DEG/KT/KT) (MB)    (FT)
BURNS HARBOR     0440   38     180/  8/ 11 1017.3R
MICHIGAN CITY    0440   38     150/  7/  8   N/A

$$

INZ004-005-014>016-021>024-210600-
NORTH CENTRAL INDIANA

CITY           SKY/WX    TMP DP  RH WIND       PRES   REMARKS
GOSHEN         CLOUDY    37  34  89 S7        30.03S WCI  32
LOGANSPORT +   CLOUDY    36  34  93 S5        30.05S FOG     WCI  32
PERU/GRISSOM   CLOUDY    39  39 100 S7        30.03F WCI  34
ROCHESTER +    CLOUDY    41  37  87 S7        30.04F
SOUTH BEND     CLOUDY    36  34  92 SW5       30.03R WCI  32
WARSAW +       CLOUDY    37  34  87 S5        30.03F WCI  34

$$

INZ006>009-017-018-025>027-210600-
NORTHEAST INDIANA

CITY           SKY/WX    TMP DP  RH WIND       PRES   REMARKS
AUBURN +       CLOUDY   N/A N/A N/A CALM      30.05S HAZE
FORT WAYNE     CLOUDY    38  36  92 S5        30.06S FOG     WCI  34
HUNTINGTON +   CLOUDY    38  37  96 S3        30.05S FOG
KENDALLVILLE + CLOUDY    37  36  96 S7        30.03F WCI  31

$$

INZ028-029-035-036-043>045-051>053-210600-
WEST CENTRAL INDIANA

CITY           SKY/WX    TMP DP  RH WIND       PRES   REMARKS
CRAWFORDSVL +  CLOUDY    37  37 100 MISG      30.05S FOG
GREENCASTLE +  CLOUDY    39  39 100 CALM      30.06S FOG
LAFAYETTE      CLOUDY    40  38  93 SW3       30.04S FOG
TERRE HAUTE    FOG       38  36  92 E5        30.06S VSB 1/2 WCI  34

$$

INZ030>032-037>040-046>048-054>057-064-065-210600-
CENTRAL INDIANA

CITY           SKY/WX    TMP DP  RH WIND       PRES   REMARKS
FISHERS *+     CLOUDY    39  39 100 S3        30.07S
FRANKFORT +    FOG       41  40  97 SW6       30.06S VSB 1
GREENWOOD *+   CLOUDY    41  40  96 SE5       30.07S VSB 1/2
INDIANAPOLIS   FOG       40  40 100 SE3       30.06S VSB 1/4
-EAGLE CREEK   FOG       40  39  97 CALM      30.05F VSB 1/2
MARION +       CLOUDY    37  36  97 CALM      30.06S FOG
MT COMFORT *+  CLOUDY    37  37 100 CALM      30.07S VSB 1/2
SHELBYVILLE    FOG       39  37  92 S8        30.06F VSB 1/2 WCI  33
ZIONSVILLE +   DRZL/FOG  37  37 100 S6        30.06S VSB 1/2 WCI  33

$$

INZ033-034-041-042-049-050-058-059-210600-
EAST CENTRAL INDIANA

CITY           SKY/WX    TMP DP  RH WIND       PRES   REMARKS
MUNCIE         CLOUDY    41  39  93 S8        30.06S FOG
RICHMOND +     FOG       36  36 100 SE3       30.08F VSB 1/4

$$

INZ060-061-067>069-081>083-085>088-210600-
SOUTHWEST INDIANA

CITY           SKY/WX    TMP DP  RH WIND       PRES   REMARKS
EVANSVILLE     CLOUDY    45  41  86 S7        30.08F
HUNTINGBURG +  CLOUDY    47  41  80 S10       30.09S
WASHINGTON +   CLOUDY    45  39  78 S9        30.06F

$$

INZ062-063-066-070>080-084-089>092-210600-
SOUTH CENTRAL AND SOUTHEAST INDIANA

CITY           SKY/WX    TMP DP  RH WIND       PRES   REMARKS
BATESVILLE *+    N/A    N/A N/A N/A MISG        N/A
BEDFORD +      LGT RAIN  45  39  81 S6        30.08R
BLOOMINGTON    CLOUDY    48  42  80 SW10G20   30.06S
FRENCH LICK *+ CLOUDY    48  41  76 SW10G17   30.09R
MADISON *+     CLOUDY    45  41  87 S3        30.12R
NORTH VERNON + CLOUDY    43  41  93 S6        30.10S
SEYMOUR +      CLOUDY    45  41  87 S5        30.09S

$$




USA.gov is the U.S. government's official web portal to all federal, state and local government web resources and services.